Regional Weather Roundup
Issued by NWS Bismarck, ND

Home | Current Version | Previous Version | Text Only | Print | Product List | Glossary On
Versions: 1 2 3 4 5 6 7 8 9 10 11 12 13 14 15 16 17 18 19 20 21 22 23 24 25 26 27 28 29 30 31 32 33 34 35 36 37 38 39 40 41 42 43 44 45 46 47 48 49 50
000
ASUS43 KBIS 191020
RWRBIS

NWR BROADCAST TEXT
NATIONAL WEATHER SERVICE BISMARCK ND
400 AM CST FRI DEC 19 2014

NOTE: "FAIR" INDICATES FEW OR NO CLOUDS BELOW 12,000 FEET WITH NO
SIGNIFICANT WEATHER AND/OR OBSTRUCTIONS TO VISIBILITY.


CITY           SKY/WX    TMP DP  RH WIND       PRES   REMARKS
WILLISTON      FOG       24  22  91 CALM      29.92S VSB 1/4
MINOT          FOG       27  25  92 SE5       29.93F VSB 3/4
MINOT AFB      CLOUDY    25  25 100 SE5       29.94F FOG     WCI  19
BISMARCK       MOCLDY    19  15  84 E5        29.98S WCI  12
DICKINSON      CLOUDY    30  24  78 W8        29.89S
GARRISON         N/A     23  21  92 SE3       29.93S
HETTINGER ARPT CLOUDY    28  23  81 W8        29.94F WCI  20
JAMESTOWN      CLOUDY    26  24  92 S12       30.02F FOG     WCI  16
BEACH          FAIR      32  27  80 W12       29.92S
CARRINGTON     CLOUDY    27  27 100 MISG      30.00F FOG
CROSBY         CLOUDY    25  25 100 SW7       29.93S FOG     WCI  17
HARVEY         CLOUDY    27  27 100 S8        29.97F FOG     WCI  18
HAZEN          PTSUNNY   19  18  93 CALM      29.95F
LINTON         FAIR      19  19 100 SE13      29.98F WCI   7
MANDAN         CLOUDY    21  19  93 S7        29.96F WCI  13
OAKES            N/A     27  27 100 S8        30.07F FOG     WCI  18
RUGBY          PTSUNNY   25  25 100 SE6       29.97F FOG     WCI  18
STANLEY        CLOUDY    25  25 100 W3        29.90F FOG
TIOGA          FOG       27  27 100 W6        29.93S VSB 1/2 WCI  20
WATFORD CITY   FAIR      18  16  93 CALM      29.90F
$$

CITY           SKY/WX    TMP DP  RH WIND       PRES   REMARKS
GRAND FORKS    CLOUDY    21  18  88 S12       30.10F WCI   9
GRAND FORKS AF CLOUDY    21  21  99 S9        30.09F WCI  11
DEVILS LAKE    CLOUDY    25  18  74 S10       29.98F WCI  15
FARGO          CLOUDY    23  20  88 SE14      30.12F FOG     WCI  11
CANDO          CLOUDY    23  23 100 S6        30.00F FOG     WCI  16
CAVALIER       CLOUDY    21  19  93 S8        30.08F FOG     WCI  12
GWINNER        CLOUDY    30  30 100 MISG      30.10S
LANGDON        CLOUDY    23  21  93 S12       30.00F FOG     WCI  12
ROLLA          CLOUDY    23  23 100 S5        29.97S FOG     WCI  17
WALHALLA         N/A     19  19 100 S10       30.07F FOG     WCI   8
$$

CITY           SKY/WX    TMP DP  RH WIND       PRES   REMARKS
ABERDEEN       CLOUDY    28  24  85 S12       30.09S WCI  18
MOBRIDGE       PTCLDY    22  20  92 S10       29.97F FOG     WCI  11
BUFFALO          N/A     29  21  72 W12       29.88S WCI  19
RAPID CITY     PTCLDY    28  18  66 NW7       29.98F
GLASGOW        PTCLDY    18  15  88 S3        29.91S
SIDNEY         CLOUDY    21  18  86 CALM      29.94F
WOLF POINT     MOCLDY    21  17  84 CALM      29.92F
GLENDIVE       CLOUDY    28  23  80 S8        29.93S
MILES CITY     PTCLDY    24  20  84 SW7       29.95S WCI  16
BAKER          PTCLDY    29  22  75 W14       29.93S WCI  18
$$

CITY           SKY/WX    TMP DP  RH WIND       PRES   REMARKS
BILLINGS       MOCLDY    32  19  58 SW18      29.96R
GREAT FALLS    CLEAR     31  25  78 SW12      29.89R
REGINA         FOG       23  23 100 W5        29.90S VSB 3/8 WCI  17
ESTEVAN        LGT SNOW  23  23 100 W5        29.92S FOG     WCI  17
$$



USA.gov is the U.S. government's official web portal to all federal, state and local government web resources and services.